Find Starlink 30344

NORAD ID: 57737 Int'l Des: 2023-131 Owner: SPXS Country: US Constellation: starlink operational
LEOCIRCULAR

当前视图

正在加载3D地球...

About Starlink 30344

Starlink 30344 (NORAD 57737) is a starlink constellation satellite (v2 mini) launched Sep 1, 2023 by SPXS of US. It operates in LEO, CIRCULAR orbit with a mass of 730.00 kg.

关于 Starlink 30344

正在加载描述...

即将过境

Passes for default location (London). Set your location on the main map for personalized predictions.

高度历史

Loading altitude history...

两行轨道根数

1 57737U 23131F 26167.24603083 .00007525 00000-0 51353-3 0 9996
2 57737 43.0032 353.3919 0003115 247.2339 112.8175 15.06567464154780
Epoch: Jun 16, 2026 • Age: 6 hours

当前状态

高度 547.0 km
速度 7.59 km/s
星下点 10.50°N, 86.52°W
发射日期 Sep 1, 2023
运行时间 2.7 years
类型 internet

技术详情

分类 Payload
质量 730.00 kg
干质量 700.00 kg
总质量 730.00 kg
长度 0.30 m
直径 4.10 m
跨度 29.00 m
形状 Box + pan
制造商 SPXS
平台类型 Starlink V2M
阶段状态 In Orbit
所有者/国家 SPXS/US

Most Searched